Location: Burgberg
(50.1428°N, 11.0671°E)
Time: 21:48:41
(UTC+00:00)

Cosmos 2058 Rocket - Pass Details

Date: 26 January 2020
Orbit: 611 x 639 km, 82.5° (Epoch: 28 February)

Event Time Altitude Azimuth Distance (km) Brightness Sun altitude
Rises 05:11:26 0° 201° (SSW) 2,883 6.4 -17.0°
Reaches altitude 10° 05:13:42 10° 205° (SSW) 1,978 5.5 -16.6°
Maximum altitude 05:18:00 54° 284° (WNW) 749 3.1 -15.9°
Drops below altitude 10° 05:22:18 10° 2° (N) 1,983 5.6 -15.3°
Sets 05:24:35 0° 7° (N) 2,891 6.5 -14.9°
